Home > Weather > Talca > Past weeks

Flag for Chile Past Weather in Talca, Chile — Yesterday and Last 2 Weeks

Now
50 °F

Sunny.


Feels Like: 49 °F
Forecast: 44 / 63 °F
Wind: 3 mph from Southeast

Location: Concepcion Airport

Current Time: Jun 30, 2016 at 1:42:21 PM

Latest Report: Jun 30, 2016 at 1:00 PM


Visibility: 10 mi

Pressure: 30.12 "Hg

Humidity: 71%

Dew Point: 41 °F

Location of TalcaLocation

Past Weather in Talca — Graph

°F

Talca Temperature Yesterday

Maximum temperature yesterday: 52 °F (at 2:00 AM)
Minimum temperature yesterday: 46 °F (at 11:00 PM)
Average temperature yesterday: 51 °F

High & Low Weather Summary for the Past Weeks

 TemperatureHumidityPressure
High63 °F (Jun 16, 4:00 PM)100% (Jun 16, 2:00 AM)30.36 "Hg (Jun 16, 2:00 AM)
Low36 °F (Jun 25, 7:00 AM)47% (Jun 25, 1:00 PM)29.95 "Hg (Jun 28, 4:00 PM)
Average48 °F87%30.13 "Hg
* Reported Jun 15 12:00 PM — Jun 30 12:00 PM, Talca, Weather by CustomWeather, © 2016

Note: Actual official high and low records may vary slightly from our data, if they occured in-between our weather recording intervals... More about our weather records

Advertising

Talca Weather History for the Previous 24 Hours

Scroll right to see more
 ConditionsComfort  
Time TempWeatherWind HumidityBarometerVisibility
12:00 PM
Thu, Jun 30
48 °FPartly sunny.5 mph76%30.12 "HgN/A
11:00 AM45 °FPartly sunny.8 mph100%30.15 "Hg5 mi
10:00 AM41 °FClear.5 mph100%30.15 "Hg5 mi
9:00 AM39 °FChilly.5 mph100%30.15 "Hg1 mi
8:00 AM39 °FChilly.5 mph100%30.15 "Hg0 mi
7:00 AM41 °FQuite cool.6 mph100%30.15 "Hg1 mi
6:00 AM41 °FQuite cool.5 mph100%30.15 "Hg1 mi
5:00 AM41 °FQuite cool.5 mph100%30.12 "Hg1 mi
4:00 AM41 °FQuite cool.3 mph100%30.15 "Hg0 mi
3:00 AM43 °FQuite cool.3 mph100%30.15 "Hg1 mi
2:00 AM43 °FQuite cool.3 mph93%30.15 "Hg0 mi
1:00 AM41 °FQuite cool.1 mph100%30.15 "Hg1 mi
12:00 AM45 °FFog.No wind93%30.15 "Hg2 mi
11:00 PM
Wed, Jun 29
46 °FClear.3 mph93%30.15 "Hg10 mi
10:00 PM48 °FPassing clouds.6 mph94%30.15 "HgN/A
9:00 PM48 °FPassing clouds.2 mph94%30.15 "HgN/A
8:00 PM50 °FPassing clouds.5 mph94%30.12 "HgN/A
7:00 PM50 °FClear.2 mph94%30.12 "Hg10 mi
6:00 PM50 °FPassing clouds.8 mph94%30.09 "HgN/A
5:00 PM52 °FPartly cloudy.6 mph94%30.09 "Hg5 mi
4:00 PM52 °FFog.6 mph94%30.09 "Hg3 mi
3:00 PM52 °FDrizzle. Fog.3 mph94%30.09 "Hg2 mi
2:00 PM52 °FPartly sunny.3 mph94%30.09 "HgN/A
1:00 PM52 °FDrizzle. Fog.8 mph94%30.12 "Hg2 mi
Weather by CustomWeather, © 2016

See weather overviewHow to use our weather pages